This demonstration page uses our WeatherBlox Daily Observations layout. Learn more.

Left ArrowRight Arrow

Hourly Observations for May 22, 2022

Temp ( °F °C ) Dew Point ( °F °C ) Humidity (%) Winds ( mph kmh ) Pressure ( in mb ) Visibility ( mi km ) Precip ( " mm )
12:51 am 00:51 Clear 72 22.2 34 1.1 25 25 NNW 12 19 29.82 1010 10 16 0.00 0.00
1:51 am 01:51 Clear 71 21.7 33 0.6 25 25 NW 10 17 29.82 1010 10 16 0.00 0.00
2:51 am 02:51 Clear 68 20 34 1.1 28 28 NNW 3 6 29.84 1010 10 16 0.00 0.00
3:51 am 03:51 Clear 67 19.4 35 1.7 31 31 NNW 6 9 29.85 1011 10 16 0.00 0.00
4:51 am 04:51 Clear 62 16.7 32 0 32 32 E 6 9 29.86 1011 10 16 0.00 0.00
5:51 am 05:51 Sunny 62 16.7 31 -0.6 31 31 E 6 9 29.89 1012 10 16 0.00 0.00
6:51 am 06:51 Sunny 70 21.1 32 0 25 25 E 5 7 29.88 1012 10 16 0.00 0.00
7:51 am 07:51 Sunny 74 23.3 32 0 21 21 E 12 19 29.89 1012 10 16 0.00 0.00
8:51 am 08:51 Sunny 76 24.4 34 1.1 22 22 E 8 13 29.90 1012 10 16 0.00 0.00
9:51 am 09:51 Sunny 80 26.7 39 3.9 23 23 ESE 12 19 29.88 1012 10 16 0.00 0.00
10:51 am 10:51 Sunny 82 27.8 35 1.7 18 18 SSE 10 17 29.87 1012 10 16 0.00 0.00
11:51 am 11:51 Sunny 88 31.1 31 -0.6 13 13 S 16 26 29.84 1010 10 16 0.00 0.00
12:51 pm 12:51 Sunny 88 31.1 28 -2.2 11 11 S 10 17 29.81 1010 10 16 0.00 0.00
1:51 pm 13:51 Sunny 90 32.2 26 -3.3 10 10 S 14 22 29.78 1009 10 16 0.00 0.00
2:51 pm 14:51 Sunny 90 32.2 27 -2.8 10 10 ESE 7 11 29.76 1008 10 16 0.00 0.00
3:51 pm 15:51 Sunny 90 32.2 23 -5 9 9 Calm 29.73 1007 10 16 0.00 0.00
4:51 pm 16:51 Sunny 92 33.3 26 -3.3 9 9 S 9 15 29.71 1006 10 16 0.00 0.00
5:51 pm 17:51 Sunny 93 33.9 25 -3.9 8 8 undefined N/A 29.70 1006 10 16 0.00 0.00
6:51 pm 18:51 Sunny 88 31.1 20 -6.7 8 8 WNW 17 28 29.70 1006 10 16 0.00 0.00
7:51 pm 19:51 Clear 84 28.9 25 -3.9 11 11 NW 17 28 29.72 1007 10 16 0.00 0.00
8:51 pm 20:51 Clear 81 27.2 27 -2.8 14 14 NNW 16 26 29.74 1007 10 16 0.00 0.00
9:51 pm 21:51 Clear 79 26.1 28 -2.2 15 15 NW 14 22 29.76 1008 10 16 0.00 0.00
10:51 pm 22:51 Clear 77 25 28 -2.2 16 16 NW 13 20 29.77 1008 10 16 0.00 0.00
11:51 pm 23:51 Clear 71 21.7 28 -2.2 20 20 NW 7 11 29.78 1009 10 16 0.00 0.00

Powered by AerisWeather